Terminal Aerodrome Forecast
Issued by NWS

Home | Current Version | Previous Version | Text Only | Print | Product List | Glossary On
Versions: 1 2 3 4 5 6 7 8 9 10 11 12 13 14 15 16 17 18 19 20 21 22 23 24 25 26 27 28 29 30 31 32 33 34 35 36 37 38 39 40 41 42 43
000
FTAK31 PAFA 262004 AAB
TAFAQT
TAF AMD
PAQT 262004Z 2620/2718 26020KT 1/2SM FG BLSN OVC040
     FM262200 25025G30KT 1/2SM -SHSN BLSN OVC025
     FM270100 25025KT 1SM -SN BLSN BKN025=

USA.gov is the U.S. government's official web portal to all federal, state and local government web resources and services.